Time,TemperatureF,DewpointF,PressureIn,WindDirection,WindDirectionDegrees,WindSpeedMPH,WindSpeedGustMPH,Humidity,HourlyPrecipIn,Conditions,Clouds,dailyrainin,SolarRadiationWatts/m^2,SoftwareType,DateUTC
2013-03-05 00:01:00,25.7,19.5,29.87,SSW,209,1.0,1.0,77,0.00,,,0.03,0,Wunderground v.1.15,2013-03-05 05:01:00,
2013-03-05 00:03:00,25.7,19.5,29.87,SSW,209,1.0,6.0,77,0.00,,,0.03,0,Wunderground v.1.15,2013-03-05 05:03:00,
2013-03-05 00:09:00,25.7,19.8,29.87,SSW,210,1.0,6.0,78,0.00,,,0.03,0,Wunderground v.1.15,2013-03-05 05:09:00,
2013-03-05 00:10:00,25.6,19.7,29.87,SW,215,1.0,1.0,78,0.00,,,0.03,0,Wunderground v.1.15,2013-03-05 05:10:00,
2013-03-05 00:15:00,25.6,19.7,29.87,SW,215,1.0,6.0,78,0.00,,,0.03,0,Wunderground v.1.15,2013-03-05 05:15:00,
2013-03-05 00:21:00,25.6,19.7,29.87,WSW,251,2.0,6.0,78,0.00,,,0.03,0,Wunderground v.1.15,2013-03-05 05:21:00,
2013-03-05 00:26:00,25.6,19.7,29.87,WSW,251,2.0,6.0,78,0.00,,,0.03,0,Wunderground v.1.15,2013-03-05 05:26:00,
2013-03-05 00:32:00,25.6,19.7,29.88,WSW,251,1.0,5.0,78,0.00,,,0.03,0,Wunderground v.1.15,2013-03-05 05:32:00,
2013-03-05 00:37:00,25.6,19.7,29.88,WSW,251,1.0,5.0,78,0.00,,,0.03,0,Wunderground v.1.15,2013-03-05 05:37:00,
2013-03-05 00:43:00,25.6,19.7,29.88,WSW,251,0.0,5.0,78,0.00,,,0.03,0,Wunderground v.1.15,2013-03-05 05:43:00,
2013-03-05 00:49:00,25.6,19.7,29.88,WSW,251,1.0,5.0,78,0.00,,,0.03,0,Wunderground v.1.15,2013-03-05 05:49:00,
2013-03-05 00:54:00,25.6,19.7,29.88,WSW,251,1.0,5.0,78,0.00,,,0.03,0,Wunderground v.1.15,2013-03-05 05:54:00,
2013-03-05 01:01:00,25.7,19.8,29.88,WSW,251,0.0,3.0,78,0.00,,,0.03,0,Wunderground v.1.15,2013-03-05 06:01:00,
2013-03-05 01:06:00,25.7,19.5,29.88,WSW,251,0.0,3.0,77,0.00,,,0.03,0,Wunderground v.1.15,2013-03-05 06:06:00,
2013-03-05 01:11:00,25.7,19.5,29.88,WSW,251,0.0,3.0,77,0.00,,,0.03,0,Wunderground v.1.15,2013-03-05 06:11:00,
2013-03-05 01:16:00,25.7,19.5,29.88,WSW,251,0.0,3.0,77,0.00,,,0.03,0,Wunderground v.1.15,2013-03-05 06:16:00,
2013-03-05 01:22:00,25.8,19.6,29.88,WSW,251,0.0,3.0,77,0.00,,,0.03,0,Wunderground v.1.15,2013-03-05 06:22:00,
2013-03-05 01:27:00,25.8,19.6,29.89,WSW,251,0.0,3.0,77,0.00,,,0.03,0,Wunderground v.1.15,2013-03-05 06:27:00,
2013-03-05 01:33:00,25.8,19.6,29.89,WSW,251,0.0,3.0,77,0.00,,,0.00,0,Wunderground v.1.15,2013-03-05 06:33:00,
2013-03-05 01:39:00,25.8,19.6,29.89,WSW,251,0.0,3.0,77,0.00,,,0.00,0,Wunderground v.1.15,2013-03-05 06:39:00,
2013-03-05 01:44:00,25.7,19.8,29.90,WSW,251,0.0,3.0,78,0.00,,,0.00,0,Wunderground v.1.15,2013-03-05 06:44:00,
2013-03-05 01:50:00,25.7,19.8,29.90,WSW,251,0.0,3.0,78,0.00,,,0.00,0,Wunderground v.1.15,2013-03-05 06:50:00,
2013-03-05 01:56:00,25.6,20.0,29.90,WSW,251,0.0,3.0,79,0.00,,,0.00,0,Wunderground v.1.15,2013-03-05 06:56:00,
2013-03-05 02:02:00,25.4,20.1,29.90,WSW,251,0.0,2.0,80,0.00,,,0.00,0,Wunderground v.1.15,2013-03-05 07:02:00,
2013-03-05 02:08:00,25.4,20.1,29.90,WSW,251,0.0,2.0,80,0.00,,,0.00,0,Wunderground v.1.15,2013-03-05 07:08:00,
2013-03-05 02:13:00,25.3,20.3,29.90,WSW,251,0.0,2.0,81,0.00,,,0.00,0,Wunderground v.1.15,2013-03-05 07:13:00,
2013-03-05 02:18:00,25.1,20.4,29.90,WSW,251,0.0,2.0,82,0.00,,,0.00,0,Wunderground v.1.15,2013-03-05 07:18:00,
2013-03-05 02:24:00,25.1,20.7,29.90,WSW,251,0.0,2.0,83,0.00,,,0.00,0,Wunderground v.1.15,2013-03-05 07:24:00,
2013-03-05 02:29:00,25.1,20.7,29.90,WSW,251,0.0,2.0,83,0.00,,,0.00,0,Wunderground v.1.15,2013-03-05 07:29:00,
2013-03-05 02:36:00,25.1,20.7,29.90,WSW,251,0.0,2.0,83,0.00,,,0.00,0,Wunderground v.1.15,2013-03-05 07:36:00,
2013-03-05 02:41:00,25.1,20.7,29.90,WSW,251,0.0,2.0,83,0.00,,,0.00,0,Wunderground v.1.15,2013-03-05 07:41:00,
2013-03-05 02:47:00,25.3,20.9,29.91,WSW,251,0.0,2.0,83,0.00,,,0.00,0,Wunderground v.1.15,2013-03-05 07:47:00,
2013-03-05 02:52:00,25.3,20.9,29.91,WSW,251,0.0,2.0,83,0.00,,,0.00,0,Wunderground v.1.15,2013-03-05 07:52:00,
2013-03-05 02:58:00,25.3,20.9,29.91,WSW,251,0.0,2.0,83,0.00,,,0.00,0,Wunderground v.1.15,2013-03-05 07:58:00,
2013-03-05 03:03:00,25.3,20.9,29.91,WSW,251,0.0,0.0,83,0.00,,,0.00,0,Wunderground v.1.15,2013-03-05 08:03:00,
2013-03-05 03:09:00,25.3,20.9,29.91,WSW,251,0.0,0.0,83,0.00,,,0.00,0,Wunderground v.1.15,2013-03-05 08:09:00,
2013-03-05 03:15:00,25.3,20.9,29.92,WSW,251,0.0,0.0,83,0.00,,,0.00,0,Wunderground v.1.15,2013-03-05 08:15:00,
2013-03-05 03:21:00,25.3,20.9,29.92,WSW,251,0.0,0.0,83,0.00,,,0.00,0,Wunderground v.1.15,2013-03-05 08:21:00,
2013-03-05 03:26:00,25.4,21.0,29.92,WSW,251,0.0,0.0,83,0.00,,,0.00,0,Wunderground v.1.15,2013-03-05 08:26:00,
2013-03-05 03:32:00,25.4,21.0,29.92,WSW,251,0.0,1.0,83,0.00,,,0.00,0,Wunderground v.1.15,2013-03-05 08:32:00,
2013-03-05 03:37:00,25.4,20.7,29.92,WSW,251,0.0,1.0,82,0.00,,,0.00,0,Wunderground v.1.15,2013-03-05 08:37:00,
2013-03-05 03:43:00,25.4,20.7,29.93,WSW,251,0.0,1.0,82,0.00,,,0.00,0,Wunderground v.1.15,2013-03-05 08:43:00,
2013-03-05 03:49:00,25.4,20.7,29.93,WSW,251,0.0,1.0,82,0.00,,,0.00,0,Wunderground v.1.15,2013-03-05 08:49:00,
2013-03-05 03:54:00,25.4,20.7,29.93,WSW,251,0.0,1.0,82,0.00,,,0.00,0,Wunderground v.1.15,2013-03-05 08:54:00,
2013-03-05 04:01:00,25.4,20.7,29.93,WSW,251,0.0,0.0,82,0.00,,,0.00,0,Wunderground v.1.15,2013-03-05 09:01:00,
2013-03-05 04:06:00,25.4,20.7,29.93,WSW,251,0.0,0.0,82,0.00,,,0.00,0,Wunderground v.1.15,2013-03-05 09:06:00,
2013-03-05 04:11:00,25.6,20.9,29.93,WSW,251,0.0,0.0,82,0.00,,,0.00,0,Wunderground v.1.15,2013-03-05 09:11:00,
2013-03-05 04:16:00,25.6,20.9,29.94,WSW,251,0.0,0.0,82,0.00,,,0.00,0,Wunderground v.1.15,2013-03-05 09:16:00,
2013-03-05 04:21:00,25.6,20.9,29.94,WSW,251,0.0,0.0,82,0.00,,,0.00,0,Wunderground v.1.15,2013-03-05 09:21:00,
2013-03-05 04:26:00,25.6,20.9,29.94,WSW,251,0.0,0.0,82,0.00,,,0.00,0,Wunderground v.1.15,2013-03-05 09:26:00,
2013-03-05 04:32:00,25.6,20.6,29.94,WSW,251,0.0,2.0,81,0.00,,,0.00,0,Wunderground v.1.15,2013-03-05 09:32:00,
2013-03-05 04:38:00,25.7,20.7,29.94,WSW,251,0.0,2.0,81,0.00,,,0.00,0,Wunderground v.1.15,2013-03-05 09:38:00,
2013-03-05 04:43:00,25.7,20.4,29.95,WSW,251,0.0,0.0,80,0.00,,,0.00,0,Wunderground v.1.15,2013-03-05 09:43:00,
2013-03-05 04:49:00,25.7,20.4,29.95,WSW,251,0.0,0.0,80,0.00,,,0.00,0,Wunderground v.1.15,2013-03-05 09:49:00,
2013-03-05 04:55:00,25.7,20.1,29.95,WSW,251,0.0,0.0,79,0.00,,,0.00,0,Wunderground v.1.15,2013-03-05 09:55:00,
2013-03-05 05:01:00,25.8,20.2,29.95,WSW,251,0.0,2.0,79,0.00,,,0.00,0,Wunderground v.1.15,2013-03-05 10:01:00,
2013-03-05 05:06:00,25.8,20.5,29.95,WSW,251,0.0,2.0,80,0.00,,,0.00,0,Wunderground v.1.15,2013-03-05 10:06:00,
2013-03-05 05:11:00,26.0,20.4,29.95,WSW,256,0.0,2.0,79,0.00,,,0.00,0,Wunderground v.1.15,2013-03-05 10:11:00,
2013-03-05 05:16:00,26.0,20.4,29.96,WSW,256,0.0,2.0,79,0.00,,,0.00,0,Wunderground v.1.15,2013-03-05 10:16:00,
2013-03-05 05:22:00,26.0,20.4,29.96,WSW,256,0.0,2.0,79,0.00,,,0.00,0,Wunderground v.1.15,2013-03-05 10:22:00,
2013-03-05 05:27:00,26.0,20.4,29.96,WSW,256,0.0,2.0,79,0.00,,,0.00,0,Wunderground v.1.15,2013-03-05 10:27:00,
2013-03-05 05:33:00,26.1,20.5,29.96,WSW,256,0.0,4.0,79,0.00,,,0.00,0,Wunderground v.1.15,2013-03-05 10:33:00,
2013-03-05 05:39:00,26.0,20.4,29.96,WSW,256,0.0,4.0,79,0.00,,,0.00,0,Wunderground v.1.15,2013-03-05 10:39:00,
2013-03-05 05:45:00,26.0,20.1,29.97,WSW,256,0.0,4.0,78,0.00,,,0.00,0,Wunderground v.1.15,2013-03-05 10:45:00,
2013-03-05 05:51:00,26.0,20.1,29.97,WSW,256,0.0,4.0,78,0.00,,,0.00,0,Wunderground v.1.15,2013-03-05 10:51:00,
2013-03-05 05:56:00,26.0,20.1,29.97,WSW,256,0.0,4.0,78,0.00,,,0.00,0,Wunderground v.1.15,2013-03-05 10:56:00,
2013-03-05 06:02:00,26.0,20.1,29.98,WSW,256,0.0,0.0,78,0.00,,,0.00,0,Wunderground v.1.15,2013-03-05 11:02:00,
2013-03-05 06:08:00,26.0,20.1,29.98,WSW,256,0.0,0.0,78,0.00,,,0.00,0,Wunderground v.1.15,2013-03-05 11:08:00,
2013-03-05 06:13:00,26.0,19.8,29.98,WSW,256,0.0,0.0,77,0.00,,,0.00,0,Wunderground v.1.15,2013-03-05 11:13:00,
2013-03-05 06:18:00,26.0,19.8,29.98,WSW,256,0.0,0.0,77,0.00,,,0.00,0,Wunderground v.1.15,2013-03-05 11:18:00,
2013-03-05 06:23:00,26.0,19.8,29.98,WSW,256,0.0,0.0,77,0.00,,,0.00,0,Wunderground v.1.15,2013-03-05 11:23:00,
2013-03-05 06:29:00,26.0,20.1,29.99,WSW,256,0.0,0.0,78,0.00,,,0.00,0,Wunderground v.1.15,2013-03-05 11:29:00,
2013-03-05 06:35:00,26.0,20.1,29.99,WSW,256,0.0,0.0,78,0.00,,,0.00,0,Wunderground v.1.15,2013-03-05 11:35:00,
2013-03-05 06:41:00,26.0,20.1,29.99,WSW,256,0.0,0.0,78,0.00,,,0.00,5,Wunderground v.1.15,2013-03-05 11:41:00,
2013-03-05 06:46:00,26.0,20.1,29.99,WSW,256,0.0,0.0,78,0.00,,,0.00,7,Wunderground v.1.15,2013-03-05 11:46:00,
2013-03-05 06:52:00,26.1,20.2,29.99,WSW,256,0.0,0.0,78,0.00,,,0.00,7,Wunderground v.1.15,2013-03-05 11:52:00,
2013-03-05 06:58:00,26.1,20.2,30.00,WSW,256,0.0,0.0,78,0.00,,,0.00,9,Wunderground v.1.15,2013-03-05 11:58:00,
2013-03-05 07:04:00,26.1,20.2,30.00,WSW,256,0.0,0.0,78,0.00,,,0.00,12,Wunderground v.1.15,2013-03-05 12:04:00,
2013-03-05 07:10:00,26.3,20.1,30.00,WSW,256,0.0,0.0,77,0.00,,,0.00,14,Wunderground v.1.15,2013-03-05 12:10:00,
2013-03-05 07:16:00,26.3,20.1,30.01,WSW,256,0.0,0.0,77,0.00,,,0.00,18,Wunderground v.1.15,2013-03-05 12:16:00,
2013-03-05 07:21:00,26.3,20.1,30.01,WSW,256,0.0,1.0,77,0.00,,,0.00,23,Wunderground v.1.15,2013-03-05 12:21:00,
2013-03-05 07:27:00,26.4,20.2,30.01,WSW,256,0.0,1.0,77,0.00,,,0.00,26,Wunderground v.1.15,2013-03-05 12:27:00,
2013-03-05 07:33:00,26.4,19.9,30.01,WSW,256,0.0,2.0,76,0.00,,,0.00,26,Wunderground v.1.15,2013-03-05 12:33:00,
2013-03-05 07:38:00,26.6,20.1,30.01,WSW,256,0.0,2.0,76,0.00,,,0.00,30,Wunderground v.1.15,2013-03-05 12:38:00,
2013-03-05 07:44:00,26.6,19.7,30.02,WSW,256,0.0,2.0,75,0.00,,,0.00,37,Wunderground v.1.15,2013-03-05 12:44:00,
2013-03-05 07:51:00,26.7,19.5,30.02,WSW,256,0.0,2.0,74,0.00,,,0.00,44,Wunderground v.1.15,2013-03-05 12:51:00,
2013-03-05 07:56:00,26.9,19.7,30.02,WSW,256,0.0,2.0,74,0.00,,,0.00,51,Wunderground v.1.15,2013-03-05 12:56:00,
2013-03-05 08:01:00,27.0,19.8,30.02,WSW,256,0.0,2.0,74,0.00,,,0.00,53,Wunderground v.1.15,2013-03-05 13:01:00,
2013-03-05 08:07:00,27.2,19.7,30.02,WSW,256,0.0,2.0,73,0.00,,,0.00,58,Wunderground v.1.15,2013-03-05 13:07:00,
2013-03-05 08:12:00,27.3,19.5,30.02,WSW,256,0.0,2.0,72,0.00,,,0.00,63,Wunderground v.1.15,2013-03-05 13:12:00,
2013-03-05 08:18:00,27.5,19.7,30.02,WSW,256,0.0,2.0,72,0.00,,,0.00,70,Wunderground v.1.15,2013-03-05 13:18:00,
2013-03-05 08:24:00,27.6,19.8,30.02,WSW,256,0.0,2.0,72,0.00,,,0.00,77,Wunderground v.1.15,2013-03-05 13:24:00,
2013-03-05 08:29:00,27.9,19.7,30.02,WSW,256,0.0,2.0,71,0.00,,,0.00,91,Wunderground v.1.15,2013-03-05 13:29:00,
2013-03-05 08:36:00,28.1,19.6,30.02,WSW,256,0.0,3.0,70,0.00,,,0.00,114,Wunderground v.1.15,2013-03-05 13:36:00,
2013-03-05 08:41:00,28.4,20.2,30.02,WSW,256,0.0,3.0,71,0.00,,,0.00,130,Wunderground v.1.15,2013-03-05 13:41:00,
2013-03-05 08:47:00,28.7,20.5,30.02,WSW,256,0.0,3.0,71,0.00,,,0.00,148,Wunderground v.1.15,2013-03-05 13:47:00,
2013-03-05 08:52:00,28.8,20.2,30.02,WSW,247,0.0,3.0,70,0.00,,,0.00,151,Wunderground v.1.15,2013-03-05 13:52:00,
2013-03-05 08:58:00,29.0,20.1,30.03,WSW,246,0.0,3.0,69,0.00,,,0.00,139,Wunderground v.1.15,2013-03-05 13:58:00,
2013-03-05 09:04:00,29.1,20.2,30.03,WSW,246,0.0,3.0,69,0.00,,,0.00,130,Wunderground v.1.15,2013-03-05 14:04:00,
2013-03-05 09:10:00,29.3,20.4,30.03,WSW,246,0.0,3.0,69,0.00,,,0.00,139,Wunderground v.1.15,2013-03-05 14:10:00,
2013-03-05 09:15:00,29.4,20.5,30.04,WSW,246,0.0,3.0,69,0.00,,,0.00,149,Wunderground v.1.15,2013-03-05 14:15:00,
2013-03-05 09:21:00,29.4,20.1,30.04,WSW,246,0.0,3.0,68,0.00,,,0.00,158,Wunderground v.1.15,2013-03-05 14:21:00,
2013-03-05 09:26:00,29.3,20.0,30.04,WSW,246,0.0,3.0,68,0.00,,,0.00,174,Wunderground v.1.15,2013-03-05 14:26:00,
2013-03-05 09:32:00,29.3,19.7,30.04,WNW,286,1.0,4.0,67,0.00,,,0.00,183,Wunderground v.1.15,2013-03-05 14:32:00,
2013-03-05 09:37:00,29.3,20.0,30.04,SW,226,1.0,6.0,68,0.00,,,0.00,176,Wunderground v.1.15,2013-03-05 14:37:00,
2013-03-05 09:43:00,29.3,20.0,30.04,SW,227,1.0,2.0,68,0.00,,,0.00,190,Wunderground v.1.15,2013-03-05 14:43:00,
2013-03-05 09:48:00,29.4,20.1,30.04,SW,229,0.0,2.0,68,0.00,,,0.00,197,Wunderground v.1.15,2013-03-05 14:48:00,
2013-03-05 09:54:00,29.8,20.5,30.04,South,172,0.0,2.0,68,0.00,,,0.00,223,Wunderground v.1.15,2013-03-05 14:54:00,
2013-03-05 10:00:00,30.1,20.8,30.04,South,172,0.0,6.0,68,0.00,,,0.00,221,Wunderground v.1.15,2013-03-05 15:00:00,
2013-03-05 10:06:00,30.3,20.6,30.04,South,172,0.0,6.0,67,0.00,,,0.00,237,Wunderground v.1.15,2013-03-05 15:06:00,
2013-03-05 10:11:00,30.4,20.7,30.04,South,172,0.0,6.0,67,0.00,,,0.00,260,Wunderground v.1.15,2013-03-05 15:11:00,
2013-03-05 10:16:00,30.9,21.2,30.04,South,172,0.0,6.0,67,0.00,,,0.00,257,Wunderground v.1.15,2013-03-05 15:16:00,
2013-03-05 10:22:00,30.9,20.5,30.04,South,172,0.0,6.0,65,0.00,,,0.00,257,Wunderground v.1.15,2013-03-05 15:22:00,
2013-03-05 10:27:00,30.9,20.9,30.03,South,172,0.0,6.0,66,0.00,,,0.00,269,Wunderground v.1.15,2013-03-05 15:27:00,
2013-03-05 10:33:00,31.2,21.2,30.03,South,172,0.0,3.0,66,0.00,,,0.00,302,Wunderground v.1.15,2013-03-05 15:33:00,
2013-03-05 10:39:00,31.6,21.9,30.03,South,172,0.0,3.0,67,0.00,,,0.00,313,Wunderground v.1.15,2013-03-05 15:39:00,
2013-03-05 10:44:00,31.6,20.8,30.03,West,281,0.0,3.0,64,0.00,,,0.00,311,Wunderground v.1.15,2013-03-05 15:44:00,
2013-03-05 10:50:00,31.3,20.9,30.03,WNW,293,1.0,1.0,65,0.00,,,0.01,360,Wunderground v.1.15,2013-03-05 15:50:00,
2013-03-05 10:56:00,31.8,21.7,30.03,NW,326,1.0,3.0,66,0.00,,,0.01,394,Wunderground v.1.15,2013-03-05 15:56:00,
2013-03-05 11:01:00,32.4,22.3,30.02,South,169,1.0,5.0,66,0.00,,,0.01,425,Wunderground v.1.15,2013-03-05 16:01:00,
2013-03-05 11:07:00,32.8,22.0,30.02,WNW,284,0.0,5.0,64,0.00,,,0.01,334,Wunderground v.1.15,2013-03-05 16:07:00,
2013-03-05 11:13:00,32.8,22.3,30.03,SSW,212,0.0,5.0,65,0.00,,,0.01,381,Wunderground v.1.15,2013-03-05 16:13:00,
2013-03-05 11:19:00,32.9,22.0,30.03,East,88,1.0,5.0,64,0.00,,,0.01,404,Wunderground v.1.15,2013-03-05 16:19:00,
2013-03-05 11:24:00,33.4,22.9,30.03,SSW,203,0.0,5.0,65,0.00,,,0.02,399,Wunderground v.1.15,2013-03-05 16:24:00,
2013-03-05 11:30:00,33.8,22.5,30.02,SE,138,0.0,7.0,63,0.00,,,0.02,519,Wunderground v.1.15,2013-03-05 16:30:00,
2013-03-05 11:36:00,34.3,23.4,30.02,ESE,113,1.0,7.0,64,0.00,,,0.02,309,Wunderground v.1.15,2013-03-05 16:36:00,
2013-03-05 11:42:00,34.3,22.6,30.02,ESE,117,1.0,7.0,62,0.00,,,0.02,271,Wunderground v.1.15,2013-03-05 16:42:00,
2013-03-05 11:47:00,34.0,23.1,30.02,SSE,149,1.0,7.0,64,0.00,,,0.02,288,Wunderground v.1.15,2013-03-05 16:47:00,
2013-03-05 11:53:00,33.7,22.8,30.02,SSE,153,0.0,7.0,64,0.00,,,0.03,301,Wunderground v.1.15,2013-03-05 16:53:00,
2013-03-05 11:59:00,33.7,22.8,30.02,SE,124,0.0,7.0,64,0.00,,,0.03,276,Wunderground v.1.15,2013-03-05 16:59:00,
2013-03-05 12:06:00,33.4,22.9,30.02,South,182,1.0,6.0,65,0.00,,,0.03,301,Wunderground v.1.15,2013-03-05 17:06:00,
2013-03-05 12:11:00,33.5,23.0,30.02,SE,127,1.0,6.0,65,0.00,,,0.03,283,Wunderground v.1.15,2013-03-05 17:11:00,
2013-03-05 12:17:00,33.5,23.0,30.03,SE,128,0.0,6.0,65,0.00,,,0.03,302,Wunderground v.1.15,2013-03-05 17:17:00,
2013-03-05 12:22:00,33.8,23.3,30.03,SE,128,0.0,6.0,65,0.00,,,0.03,308,Wunderground v.1.15,2013-03-05 17:22:00,
2013-03-05 12:28:00,34.1,23.6,30.02,ENE,69,0.0,6.0,65,0.00,,,0.03,341,Wunderground v.1.15,2013-03-05 17:28:00,
2013-03-05 12:34:00,34.6,24.0,30.02,SE,128,0.0,4.0,65,0.00,,,0.03,422,Wunderground v.1.15,2013-03-05 17:34:00,
2013-03-05 12:39:00,34.9,24.3,30.02,SE,124,1.0,4.0,65,0.00,,,0.03,573,Wunderground v.1.15,2013-03-05 17:39:00,
2013-03-05 12:45:00,36.2,25.2,30.02,SE,146,0.0,4.0,64,0.00,,,0.03,455,Wunderground v.1.15,2013-03-05 17:45:00,
2013-03-05 12:51:00,37.2,25.4,30.02,ESE,119,0.0,4.0,62,0.00,,,0.03,332,Wunderground v.1.15,2013-03-05 17:51:00,
2013-03-05 12:56:00,37.0,24.4,30.02,ESE,117,0.0,4.0,60,0.00,,,0.04,288,Wunderground v.1.15,2013-03-05 17:56:00,
2013-03-05 13:02:00,36.5,24.3,30.02,East,95,1.0,5.0,61,0.00,,,0.04,294,Wunderground v.1.15,2013-03-05 18:02:00,
2013-03-05 13:08:00,36.2,24.0,30.02,East,95,1.0,5.0,61,0.00,,,0.04,360,Wunderground v.1.15,2013-03-05 18:08:00,
2013-03-05 13:13:00,36.0,23.8,30.02,SE,128,1.0,5.0,61,0.00,,,0.04,424,Wunderground v.1.15,2013-03-05 18:13:00,
2013-03-05 13:18:00,36.0,24.2,30.02,East,97,1.0,5.0,62,0.00,,,0.04,408,Wunderground v.1.15,2013-03-05 18:18:00,
2013-03-05 13:24:00,36.3,24.9,30.02,ESE,108,1.0,5.0,63,0.00,,,0.04,550,Wunderground v.1.15,2013-03-05 18:24:00,
2013-03-05 13:30:00,36.9,25.5,30.02,South,176,1.0,1.0,63,0.00,,,0.05,786,Wunderground v.1.15,2013-03-05 18:30:00,
2013-03-05 13:36:00,37.0,24.4,30.02,East,100,1.0,5.0,60,0.00,,,0.05,183,Wunderground v.1.15,2013-03-05 18:36:00,
2013-03-05 13:41:00,36.0,24.2,30.02,East,88,1.0,5.0,62,0.00,,,0.05,206,Wunderground v.1.15,2013-03-05 18:41:00,
2013-03-05 13:47:00,35.2,24.2,30.03,SE,127,1.0,5.0,64,0.00,,,0.05,169,Wunderground v.1.15,2013-03-05 18:47:00,
2013-03-05 13:52:00,35.0,24.0,30.03,South,174,1.0,5.0,64,0.00,,,0.05,160,Wunderground v.1.15,2013-03-05 18:52:00,
2013-03-05 13:58:00,34.6,24.0,30.03,East,98,1.0,5.0,65,0.00,,,0.05,185,Wunderground v.1.15,2013-03-05 18:58:00,
2013-03-05 14:03:00,34.6,24.4,30.03,NNW,345,1.0,6.0,66,0.00,,,0.05,271,Wunderground v.1.15,2013-03-05 19:03:00,
2013-03-05 14:09:00,34.9,25.0,30.03,South,172,0.0,6.0,67,0.00,,,0.05,325,Wunderground v.1.15,2013-03-05 19:09:00,
2013-03-05 14:15:00,35.2,24.6,30.03,South,181,0.0,6.0,65,0.00,,,0.05,197,Wunderground v.1.15,2013-03-05 19:15:00,
2013-03-05 14:21:00,35.0,24.4,30.03,ESE,116,0.0,6.0,65,0.00,,,0.05,156,Wunderground v.1.15,2013-03-05 19:21:00,
2013-03-05 14:26:00,34.9,24.3,30.03,ESE,116,0.0,6.0,65,0.00,,,0.05,163,Wunderground v.1.15,2013-03-05 19:26:00,
2013-03-05 14:32:00,34.6,24.0,30.04,ESE,117,0.0,4.0,65,0.00,,,0.05,172,Wunderground v.1.15,2013-03-05 19:32:00,
2013-03-05 14:38:00,34.3,24.1,30.04,WSW,247,1.0,4.0,66,0.00,,,0.05,142,Wunderground v.1.15,2013-03-05 19:38:00,
2013-03-05 14:43:00,34.3,24.5,30.04,WNW,298,1.0,4.0,67,0.00,,,0.05,163,Wunderground v.1.15,2013-03-05 19:43:00,
2013-03-05 14:49:00,34.3,24.5,30.04,NE,41,1.0,4.0,67,0.00,,,0.05,169,Wunderground v.1.15,2013-03-05 19:49:00,
2013-03-05 14:55:00,34.3,24.5,30.04,NE,39,0.0,4.0,67,0.00,,,0.05,156,Wunderground v.1.15,2013-03-05 19:55:00,
2013-03-05 15:01:00,34.3,24.8,30.04,ENE,72,0.0,6.0,68,0.00,,,0.05,169,Wunderground v.1.15,2013-03-05 20:01:00,
2013-03-05 15:06:00,34.4,24.6,30.04,ESE,112,0.0,6.0,67,0.00,,,0.05,169,Wunderground v.1.15,2013-03-05 20:06:00,
2013-03-05 15:11:00,34.6,24.8,30.04,ESE,116,0.0,6.0,67,0.00,,,0.05,160,Wunderground v.1.15,2013-03-05 20:11:00,
2013-03-05 15:17:00,34.6,24.8,30.05,SSE,161,0.0,6.0,67,0.00,,,0.05,160,Wunderground v.1.15,2013-03-05 20:17:00,
2013-03-05 15:23:00,34.6,24.8,30.05,SSE,161,0.0,6.0,67,0.00,,,0.05,202,Wunderground v.1.15,2013-03-05 20:23:00,
2013-03-05 15:28:00,34.6,24.8,30.05,SSE,158,0.0,6.0,67,0.00,,,0.05,172,Wunderground v.1.15,2013-03-05 20:28:00,
2013-03-05 15:34:00,34.4,24.2,30.05,SSE,158,0.0,4.0,66,0.00,,,0.05,114,Wunderground v.1.15,2013-03-05 20:34:00,
2013-03-05 15:40:00,34.6,24.8,30.05,SSE,158,0.0,4.0,67,0.00,,,0.05,116,Wunderground v.1.15,2013-03-05 20:40:00,
2013-03-05 15:46:00,34.6,24.8,30.05,SSE,158,0.0,4.0,67,0.00,,,0.05,90,Wunderground v.1.15,2013-03-05 20:46:00,
2013-03-05 15:51:00,34.4,24.6,30.05,ESE,115,0.0,4.0,67,0.00,,,0.05,102,Wunderground v.1.15,2013-03-05 20:51:00,
2013-03-05 15:57:00,34.4,24.6,30.05,ESE,115,1.0,4.0,67,0.00,,,0.05,63,Wunderground v.1.15,2013-03-05 20:57:00,
2013-03-05 16:02:00,34.6,24.8,30.05,SSW,203,0.0,9.0,67,0.00,,,0.05,74,Wunderground v.1.15,2013-03-05 21:02:00,
2013-03-05 16:08:00,34.6,24.8,30.05,SW,232,1.0,9.0,67,0.00,,,0.05,60,Wunderground v.1.15,2013-03-05 21:08:00,
2013-03-05 16:13:00,34.6,24.8,30.05,SW,232,0.0,9.0,67,0.00,,,0.05,54,Wunderground v.1.15,2013-03-05 21:13:00,
2013-03-05 16:18:00,34.4,24.6,30.05,SW,231,0.0,9.0,67,0.00,,,0.05,56,Wunderground v.1.15,2013-03-05 21:18:00,
2013-03-05 16:24:00,34.3,24.5,30.05,SW,231,0.0,9.0,67,0.00,,,0.05,58,Wunderground v.1.15,2013-03-05 21:24:00,
2013-03-05 16:30:00,34.1,24.3,30.05,SSE,163,1.0,1.0,67,0.00,,,0.05,56,Wunderground v.1.15,2013-03-05 21:30:00,
2013-03-05 16:36:00,34.0,24.2,30.05,SSE,163,0.0,6.0,67,0.00,,,0.05,53,Wunderground v.1.15,2013-03-05 21:36:00,
2013-03-05 16:41:00,33.8,24.0,30.05,West,276,0.0,6.0,67,0.00,,,0.05,49,Wunderground v.1.15,2013-03-05 21:41:00,
2013-03-05 16:47:00,33.7,23.9,30.06,West,276,1.0,6.0,67,0.00,,,0.05,54,Wunderground v.1.15,2013-03-05 21:47:00,
2013-03-05 16:53:00,33.7,24.3,30.06,West,276,0.0,6.0,68,0.00,,,0.05,67,Wunderground v.1.15,2013-03-05 21:53:00,
2013-03-05 16:58:00,33.5,24.1,30.07,West,276,0.0,6.0,68,0.00,,,0.05,56,Wunderground v.1.15,2013-03-05 21:58:00,
2013-03-05 17:04:00,33.5,24.1,30.07,West,276,0.0,4.0,68,0.00,,,0.05,37,Wunderground v.1.15,2013-03-05 22:04:00,
2013-03-05 17:10:00,33.4,24.3,30.07,West,276,0.0,4.0,69,0.00,,,0.05,46,Wunderground v.1.15,2013-03-05 22:10:00,
2013-03-05 17:15:00,33.4,24.7,30.07,West,276,0.0,4.0,70,0.00,,,0.05,39,Wunderground v.1.15,2013-03-05 22:15:00,
2013-03-05 17:21:00,33.2,24.5,30.07,West,275,0.0,4.0,70,0.00,,,0.05,18,Wunderground v.1.15,2013-03-05 22:21:00,
2013-03-05 17:27:00,32.9,23.8,30.07,West,274,0.0,4.0,69,0.00,,,0.05,14,Wunderground v.1.15,2013-03-05 22:27:00,
2013-03-05 17:32:00,32.5,23.5,30.07,West,274,0.0,3.0,69,0.00,,,0.05,11,Wunderground v.1.15,2013-03-05 22:32:00,
2013-03-05 17:38:00,32.1,23.4,30.07,West,274,0.0,3.0,70,0.00,,,0.05,7,Wunderground v.1.15,2013-03-05 22:38:00,
2013-03-05 17:43:00,31.8,23.1,30.07,West,274,0.0,3.0,70,0.00,,,0.05,5,Wunderground v.1.15,2013-03-05 22:43:00,
2013-03-05 17:49:00,31.3,23.0,30.07,West,274,0.0,3.0,71,0.00,,,0.05,0,Wunderground v.1.15,2013-03-05 22:49:00,
2013-03-05 17:55:00,30.9,22.9,30.07,West,274,0.0,3.0,72,0.00,,,0.05,0,Wunderground v.1.15,2013-03-05 22:55:00,
2013-03-05 18:01:00,30.6,23.0,30.07,West,274,0.0,1.0,73,0.00,,,0.05,0,Wunderground v.1.15,2013-03-05 23:01:00,
2013-03-05 18:06:00,30.3,22.7,30.07,West,274,0.0,1.0,73,0.00,,,0.05,0,Wunderground v.1.15,2013-03-05 23:06:00,
2013-03-05 18:11:00,30.0,22.7,30.07,West,274,0.0,1.0,74,0.00,,,0.05,0,Wunderground v.1.15,2013-03-05 23:11:00,
2013-03-05 18:16:00,29.8,22.5,30.08,West,274,0.0,1.0,74,0.00,,,0.05,0,Wunderground v.1.15,2013-03-05 23:16:00,
2013-03-05 18:22:00,29.7,22.7,30.08,West,274,0.0,1.0,75,0.00,,,0.05,0,Wunderground v.1.15,2013-03-05 23:22:00,
2013-03-05 18:28:00,29.5,22.6,30.08,West,274,0.0,1.0,75,0.00,,,0.05,0,Wunderground v.1.15,2013-03-05 23:28:00,
2013-03-05 18:34:00,29.4,22.8,30.08,SSE,149,0.0,3.0,76,0.00,,,0.05,0,Wunderground v.1.15,2013-03-05 23:34:00,
2013-03-05 18:39:00,29.4,22.8,30.08,SSE,153,0.0,3.0,76,0.00,,,0.05,0,Wunderground v.1.15,2013-03-05 23:39:00,
2013-03-05 18:45:00,29.3,22.7,30.08,SSE,153,0.0,3.0,76,0.00,,,0.05,0,Wunderground v.1.15,2013-03-05 23:45:00,
2013-03-05 18:51:00,29.1,22.8,30.08,SSE,153,0.0,3.0,77,0.00,,,0.05,0,Wunderground v.1.15,2013-03-05 23:51:00,
2013-03-05 18:57:00,29.0,22.7,30.08,SSE,153,0.0,3.0,77,0.00,,,0.05,0,Wunderground v.1.15,2013-03-05 23:57:00,
2013-03-05 19:02:00,28.8,22.5,30.08,SSE,153,0.0,4.0,77,0.00,,,0.05,0,Wunderground v.1.15,2013-03-06 00:02:00,
2013-03-05 19:08:00,28.7,22.4,30.08,SSE,153,0.0,4.0,77,0.00,,,0.05,0,Wunderground v.1.15,2013-03-06 00:08:00,
2013-03-05 19:13:00,28.5,22.5,30.08,SSE,153,0.0,4.0,78,0.00,,,0.05,0,Wunderground v.1.15,2013-03-06 00:13:00,
2013-03-05 19:19:00,28.5,22.5,30.08,SSE,153,0.0,4.0,78,0.00,,,0.05,0,Wunderground v.1.15,2013-03-06 00:19:00,
2013-03-05 19:25:00,28.4,22.4,30.08,SSE,153,0.0,4.0,78,0.00,,,0.05,0,Wunderground v.1.15,2013-03-06 00:25:00,
2013-03-05 19:31:00,28.4,22.4,30.08,SSE,153,0.0,3.0,78,0.00,,,0.05,0,Wunderground v.1.15,2013-03-06 00:31:00,
2013-03-05 19:36:00,28.2,22.2,30.08,SSE,153,0.0,3.0,78,0.00,,,0.05,0,Wunderground v.1.15,2013-03-06 00:36:00,
2013-03-05 19:42:00,28.1,22.1,30.08,SSE,153,0.0,3.0,78,0.00,,,0.05,0,Wunderground v.1.15,2013-03-06 00:42:00,
2013-03-05 19:47:00,27.9,22.2,30.08,SSE,153,0.0,3.0,79,0.00,,,0.05,0,Wunderground v.1.15,2013-03-06 00:47:00,
2013-03-05 19:53:00,27.8,22.1,30.08,SSE,153,0.0,3.0,79,0.00,,,0.05,0,Wunderground v.1.15,2013-03-06 00:53:00,
2013-03-05 19:59:00,27.6,21.9,30.08,SSE,153,0.0,3.0,79,0.00,,,0.05,0,Wunderground v.1.15,2013-03-06 00:59:00,
2013-03-05 20:04:00,27.6,22.2,30.08,SW,219,1.0,3.0,80,0.00,,,0.05,0,Wunderground v.1.15,2013-03-06 01:04:00,
2013-03-05 20:10:00,27.6,22.2,30.08,SW,219,1.0,1.0,80,0.00,,,0.05,0,Wunderground v.1.15,2013-03-06 01:10:00,
2013-03-05 20:15:00,27.8,22.4,30.07,South,189,1.0,2.0,80,0.00,,,0.05,0,Wunderground v.1.15,2013-03-06 01:15:00,
2013-03-05 20:21:00,27.9,22.5,30.07,South,189,0.0,2.0,80,0.00,,,0.05,0,Wunderground v.1.15,2013-03-06 01:21:00,
2013-03-05 20:26:00,27.9,22.5,30.07,South,189,0.0,2.0,80,0.00,,,0.05,0,Wunderground v.1.15,2013-03-06 01:26:00,
2013-03-05 20:32:00,27.6,22.2,30.08,South,189,0.0,4.0,80,0.00,,,0.05,0,Wunderground v.1.15,2013-03-06 01:32:00,
2013-03-05 20:37:00,27.6,22.2,30.08,South,189,0.0,4.0,80,0.00,,,0.05,0,Wunderground v.1.15,2013-03-06 01:37:00,
2013-03-05 20:43:00,27.6,22.2,30.07,South,189,0.0,4.0,80,0.00,,,0.05,0,Wunderground v.1.15,2013-03-06 01:43:00,
2013-03-05 20:49:00,27.5,22.1,30.07,South,189,1.0,4.0,80,0.00,,,0.05,0,Wunderground v.1.15,2013-03-06 01:49:00,
2013-03-05 20:54:00,27.3,21.9,30.07,South,189,1.0,4.0,80,0.00,,,0.05,0,Wunderground v.1.15,2013-03-06 01:54:00,
2013-03-05 21:01:00,27.2,22.1,30.07,South,189,1.0,1.0,81,0.00,,,0.05,0,Wunderground v.1.15,2013-03-06 02:01:00,
2013-03-05 21:06:00,27.2,22.1,30.07,West,265,1.0,4.0,81,0.00,,,0.05,0,Wunderground v.1.15,2013-03-06 02:06:00,
2013-03-05 21:11:00,27.2,22.1,30.07,WSW,255,1.0,4.0,81,0.00,,,0.05,0,Wunderground v.1.15,2013-03-06 02:11:00,
2013-03-05 21:17:00,27.5,22.7,30.07,WSW,252,2.0,5.0,82,0.00,,,0.05,0,Wunderground v.1.15,2013-03-06 02:17:00,
2013-03-05 21:22:00,27.6,22.5,30.07,SSW,195,3.0,4.0,81,0.00,,,0.05,0,Wunderground v.1.15,2013-03-06 02:22:00,
2013-03-05 21:28:00,27.8,22.7,30.07,WSW,256,3.0,4.0,81,0.00,,,0.05,0,Wunderground v.1.15,2013-03-06 02:28:00,
2013-03-05 21:34:00,27.6,22.2,30.07,WSW,244,1.0,8.0,80,0.00,,,0.05,0,Wunderground v.1.15,2013-03-06 02:34:00,
2013-03-05 21:41:00,27.3,21.9,30.07,WSW,244,1.0,1.0,80,0.00,,,0.05,0,Wunderground v.1.15,2013-03-06 02:41:00,
2013-03-05 21:46:00,27.3,22.2,30.07,WSW,244,0.0,8.0,81,0.00,,,0.05,0,Wunderground v.1.15,2013-03-06 02:46:00,
2013-03-05 21:52:00,27.2,22.1,30.07,SW,224,0.0,8.0,81,0.00,,,0.05,0,Wunderground v.1.15,2013-03-06 02:52:00,
2013-03-05 21:57:00,27.2,22.1,30.07,SW,224,1.0,8.0,81,0.00,,,0.05,0,Wunderground v.1.15,2013-03-06 02:57:00,
2013-03-05 22:03:00,26.9,21.8,30.07,SW,224,0.0,3.0,81,0.00,,,0.05,0,Wunderground v.1.15,2013-03-06 03:03:00,
2013-03-05 22:09:00,26.7,21.9,30.07,SW,224,0.0,3.0,82,0.00,,,0.05,0,Wunderground v.1.15,2013-03-06 03:09:00,
2013-03-05 22:14:00,26.6,21.8,30.07,SW,224,0.0,3.0,82,0.00,,,0.05,0,Wunderground v.1.15,2013-03-06 03:14:00,
2013-03-05 22:19:00,26.4,21.7,30.07,SW,224,0.0,3.0,82,0.00,,,0.05,0,Wunderground v.1.15,2013-03-06 03:19:00,
2013-03-05 22:25:00,26.3,21.6,30.07,SW,224,0.0,3.0,82,0.00,,,0.05,0,Wunderground v.1.15,2013-03-06 03:25:00,
2013-03-05 22:31:00,26.0,21.3,30.07,SW,224,0.0,1.0,82,0.00,,,0.05,0,Wunderground v.1.15,2013-03-06 03:31:00,
2013-03-05 22:36:00,26.0,21.3,30.07,SW,224,0.0,1.0,82,0.00,,,0.05,0,Wunderground v.1.15,2013-03-06 03:36:00,
2013-03-05 22:42:00,25.7,21.0,30.07,SW,224,0.0,1.0,82,0.00,,,0.05,0,Wunderground v.1.15,2013-03-06 03:42:00,
2013-03-05 22:48:00,25.6,20.9,30.07,SW,224,0.0,2.0,82,0.00,,,0.05,0,Wunderground v.1.15,2013-03-06 03:48:00,
2013-03-05 22:54:00,25.4,21.0,30.07,SW,224,0.0,1.0,83,0.00,,,0.05,0,Wunderground v.1.15,2013-03-06 03:54:00,
2013-03-05 23:00:00,25.3,20.9,30.07,SW,224,0.0,2.0,83,0.00,,,0.05,0,Wunderground v.1.15,2013-03-06 04:00:00,
2013-03-05 23:06:00,25.1,20.7,30.07,SW,224,0.0,2.0,83,0.00,,,0.05,0,Wunderground v.1.15,2013-03-06 04:06:00,
2013-03-05 23:11:00,25.1,20.7,30.07,SW,224,0.0,2.0,83,0.00,,,0.05,0,Wunderground v.1.15,2013-03-06 04:11:00,
2013-03-05 23:17:00,25.0,20.6,30.07,SW,224,0.0,3.0,83,0.00,,,0.05,0,Wunderground v.1.15,2013-03-06 04:17:00,
2013-03-05 23:23:00,24.8,20.4,30.07,SW,224,0.0,2.0,83,0.00,,,0.05,0,Wunderground v.1.15,2013-03-06 04:23:00,
2013-03-05 23:28:00,24.8,20.4,30.07,SW,224,0.0,2.0,83,0.00,,,0.05,0,Wunderground v.1.15,2013-03-06 04:28:00,
2013-03-05 23:34:00,24.8,20.7,30.07,SW,224,0.0,3.0,84,0.00,,,0.05,0,Wunderground v.1.15,2013-03-06 04:34:00,
2013-03-05 23:39:00,24.8,20.7,30.07,SW,224,0.0,3.0,84,0.00,,,0.05,0,Wunderground v.1.15,2013-03-06 04:39:00,
2013-03-05 23:46:00,24.7,20.6,30.07,SW,224,0.0,3.0,84,0.00,,,0.05,0,Wunderground v.1.15,2013-03-06 04:46:00,
2013-03-05 23:51:00,24.7,20.6,30.07,SW,224,0.0,3.0,84,0.00,,,0.05,0,Wunderground v.1.15,2013-03-06 04:51:00,
2013-03-05 23:57:00,24.7,20.6,30.07,SW,224,0.0,3.0,84,0.00,,,0.05,0,Wunderground v.1.15,2013-03-06 04:57:00,